Regional Weather Roundup
Issued by NWS Albany, NY

Home | Current Version | Previous Version | Graphics & Text | Print | Product List | Glossary Off
Versions: 1 2 3 4 5 6 7 8 9 10 11 12 13 14 15 16 17 18 19 20 21 22 23 24 25 26 27 28 29 30 31 32 33 34 35 36 37 38 39 40 41 42 43 44 45 46 47 48 49 50

000
ASUS41 KALY 031110
RWRALY

NEW YORK STATE HOURLY WEATHER ROUNDUP
NATIONAL WEATHER SERVICE ALBANY NY
700 AM EDT FRI JUL 03 2015

NOTE: "FAIR" INDICATES FEW OR NO CLOUDS BELOW 12,000 FEET WITH NO
SIGNIFICANT WEATHER AND/OR NO OBSTRUCTIONS TO VISIBILITY.

NYZ032-033-038>043-046>054-057>066-NYZ062>081-031200-
EAST


CITY           SKY/WX    TMP DP  RH WIND       PRES   REMARKS
ALBANY         MOSUNNY   57  49  74 CALM      30.00R
GLENS FALLS    SUNNY     57  51  80 CALM      29.98S
POUGHKEEPSIE   MOSUNNY   56  53  90 CALM      29.98R
NEWBURGH       SUNNY     59  55  88 CALM      30.00R
MONTGOMERY     SUNNY     58  55  90 MISG      29.99R
WHITE PLAINS   SUNNY     63  50  62 NW9       29.96R
ISLIP          MOSUNNY   65  57  75 N8        29.93R
NEW YORK CITY  MOSUNNY   68  52  56 NE7       29.95R
CENTRAL PARK   SUNNY     67  52  58 VRB7      29.98R
$$

NYZ005>009-017-018-044>046-055-056-031200-
CENTRAL


CITY           SKY/WX    TMP DP  RH WIND       PRES   REMARKS
FULTON         SUNNY     53  51  93 S3        30.01R
SYRACUSE       MOSUNNY   53  49  86 CALM      30.01R
ROME           SUNNY     49  47  93 CALM      30.04R
ELMIRA         SUNNY     50  49  96 SW3       30.02S
BINGHAMTON     SUNNY     54  46  74 CALM      30.02R
MONTICELLO     SUNNY     54  48  82 NW5       30.02R
$$

NYZ026>034-041>043-031200-
NORTH


CITY           SKY/WX    TMP DP  RH WIND       PRES   REMARKS
WATERTOWN      SUNNY     53  47  79 CALM      30.00R
FORT DRUM      NOT AVBL
MASSENA        PTSUNNY   54  49  83 SW8       29.98R
SARANAC LAKE   PTSUNNY   42  41  96 CALM      29.99R
PLATTSBURGH    SUNNY     58  49  72 SE3       29.95R
$$

NYZ001>004-010>016-019>021-031200-
WEST


CITY           SKY/WX    TMP DP  RH WIND       PRES   REMARKS
NIAGARA FALLS  SUNNY     51  48  89 CALM      30.01S
BUFFALO        MOSUNNY   53  48  83 SE3       30.02S
DUNKIRK        SUNNY     50  48  93 CALM      30.01S
JAMESTOWN      SUNNY     52  45  76 NE3       30.02S
WELLSVILLE     FOG       48  46  93 CALM      30.04S VSB<1/4
ROCHESTER      SUNNY     53  50  89 SW8       30.02R
PENN YAN       SUNNY     53  51  93 SW5       30.02S
$$

             KEY
       WCI = WIND CHILL INDEX
       VSB = VISIBILITY
       HX  = HEAT INDEX
$$


USA.gov is the U.S. government's official web portal to all federal, state and local government web resources and services.